Flag for Australia Weather past 2 weeks in Cairns, Queensland, Australia

Now
79 °F

Passing clouds.


Feels Like: 82 °F
Forecast: 78 / 88 °F
Wind: 10 mph from South

Location: Cairns Airport

Current Time: Mar 4, 2015 at 11:18:43 PM

Latest Report: Mar 4, 2015 at 11:00 PM


Visibility: N/A

Pressure: 29.83 "Hg

Humidity: 79%

Dew point: 72 °F

Location of CairnsLocation

Historic Weather in Cairns — Graph

°F

Cairns temperature yesterday

Maximum temperature yesterday: 91 °F (at 12:00 PM)
Minimum temperature yesterday: 75 °F (at 4:00 AM)
Average temperature yesterday: 83 °F

Past Weeks' High & Low Weather Summary

 TemperatureHumidityPressure
High95 °F (Feb 22, 12:00 PM)100% (Feb 19, 3:30 AM)29.86 "Hg (Feb 19, 3:30 AM)
Low72 °F (Feb 19, 3:30 AM)44% (Mar 3, 12:30 PM)29.65 "Hg (Feb 26, 3:00 PM)
Average82 °F77%29.75 "Hg
* Reported Feb 17 10:00 PM — Mar 4 10:00 PM, Cairns, Weather by CustomWeather, © 2015

Note: Actual official high and low records may vary slightly from our data, if they occured in-between our weather recording intervals... More about our weather records

Advertising

Cairns weather history for previous 24 hours

 ConditionsComfort  
Time TempWeatherWind HumidityBarometerVisibility
10:00 PM
Wed, Mar 4
79 °FScattered showers. Passing clouds.10 mph79%29.83 "HgN/A
9:00 PM79 °FPassing clouds.8 mph84%29.83 "HgN/A
8:00 PM79 °FPassing clouds.9 mph79%29.80 "HgN/A
7:30 PM81 °FScattered showers. Passing clouds.10 mph74%29.80 "HgN/A
7:00 PM81 °FScattered showers. Passing clouds.12 mph74%29.80 "HgN/A
6:30 PM81 °FScattered showers. Broken clouds.13 mph74%29.80 "HgN/A
6:00 PM82 °FBroken clouds.10 mph66%29.77 "HgN/A
5:30 PM84 °FBroken clouds.10 mph66%29.77 "HgN/A
5:00 PM84 °FScattered showers. Broken clouds.15 mph70%29.77 "HgN/A
4:30 PM84 °FScattered showers. Broken clouds.17 mph62%29.77 "HgN/A
4:00 PM86 °FPartly sunny.13 mph62%29.77 "HgN/A
3:30 PM86 °FBroken clouds.12 mph66%29.77 "HgN/A
3:00 PM84 °FScattered showers. Scattered clouds.9 mph62%29.77 "HgN/A
2:30 PM84 °FScattered showers. Broken clouds.15 mph70%29.77 "HgN/A
2:00 PM86 °FSprinkles. Broken clouds.16 mph66%29.77 "Hg4 mi
1:00 PM84 °FSprinkles. Broken clouds.13 mph70%29.80 "HgN/A
12:00 PM82 °FBroken clouds.12 mph74%29.83 "HgN/A
11:30 AM81 °FBroken clouds.12 mph74%29.83 "HgN/A
11:00 AM79 °FScattered showers. Broken clouds.12 mph89%29.86 "HgN/A
10:30 AM79 °FRain showers. Broken clouds.10 mph84%29.86 "Hg3 mi
10:00 AM84 °FScattered showers. Scattered clouds.13 mph70%29.83 "HgN/A
9:30 AM84 °FScattered showers. Scattered clouds.10 mph70%29.83 "HgN/A
9:00 AM81 °FScattered showers. Passing clouds.12 mph84%29.83 "HgN/A
8:00 AM81 °FScattered showers. Scattered clouds.9 mph74%29.80 "HgN/A
7:30 AM81 °FScattered clouds.8 mph74%29.80 "HgN/A
7:00 AM79 °FScattered clouds.13 mph79%29.80 "HgN/A
6:30 AM77 °FScattered clouds.7 mph83%29.80 "HgN/A
6:00 AM75 °FSprinkles. Partly cloudy.9 mph89%29.80 "HgN/A
5:00 AM79 °FClear.9 mph74%29.77 "HgN/A
4:30 AM79 °FPassing clouds.8 mph74%29.77 "HgN/A
4:00 AM79 °FPassing clouds.9 mph74%29.77 "HgN/A
3:30 AM79 °FPassing clouds.9 mph74%29.77 "HgN/A
3:00 AM79 °FPassing clouds.8 mph70%29.77 "HgN/A
2:30 AM79 °FPassing clouds.8 mph70%29.77 "HgN/A
2:00 AM77 °FPassing clouds.8 mph79%29.80 "HgN/A
1:30 AM79 °FPassing clouds.7 mph70%29.80 "HgN/A
1:00 AM79 °FPassing clouds.7 mph70%29.83 "HgN/A
12:30 AM79 °FPassing clouds.8 mph74%29.83 "HgN/A
12:00 AM79 °FPassing clouds.9 mph74%29.86 "HgN/A
11:00 PM
Tue, Mar 3
79 °FPassing clouds.7 mph74%29.86 "HgN/A
Weather by CustomWeather, © 2015

See weather overviewHow to use our weather pages